Location: Alpha Ridge Park
(39.3209°N, 76.9128°W)
Time: 09:30:28
(UTC-04:00)

Transit 2A - Pass Details

Date: 28 May 2019
Orbit: 593 x 966 km, 66.7° (Epoch: 24 June)

Event Time Altitude Azimuth Distance (km) Brightness Sun altitude
Rises 06:59:31 0° 202° (SSW) 3,521 9.0 12.4°
Reaches altitude 10° 07:01:58 10° 200° (SSW) 2,620 8.5 12.9°
Maximum altitude 07:08:09 76° 116° (ESE) 988 7.0 14.0°
Drops below altitude 10° 07:14:33 10° 32° (NNE) 2,707 9.7 15.2°
Sets 07:17:07 0° 31° (NNE) 3,646 10.2 15.7°
